User: anonymous   Login
Location: Camp Creek
(33.9000°N, 111.8167°W)
Time: 23:16:54
(UTC-07:00)
Language:

Cosmos 2322 Rocket - Orbit

View from above orbital plane
View from above orbital plane
View from above satellite
View from above satellite

Ground track
Ground track

The orbit data is extracted from the following two-line orbital elements,

1 23705U 95058B   15027.50794736 -.00000222  00000-0 -89926-4 0  4485
2 23705 071.0220 057.7816 0012810 197.8594 162.2080 14.15047524993878
Epoch (UTC): 27 January 2015 12:11:26
Eccentricity: 0.0012810
inclination: 71.0220°
perigee height: 833 km
apogee height: 851 km
right ascension of ascending node: 57.7816°
argument of perigee: 197.8594°
revolutions per day: 14.15047524
mean anomaly at epoch: 162.2080°
orbit number at epoch: 99387

The dashed part of the orbit path shows where the satellite is in the earth's shadow,  

DLR